status,avgMeasuredTime,avgSpeed,extID,medianMeasuredTime,TIMESTAMP,vehicleCount,_id,REPORT_ID
OK,116,21,876,116,2014-08-01T08:00:00,1,20746931,187907
OK,116,21,876,116,2014-08-01T08:05:00,0,20747380,187907
OK,57,43,876,57,2014-08-01T08:10:00,1,20747753,187907
OK,57,43,876,57,2014-08-01T08:15:00,1,20748202,187907
OK,57,43,876,57,2014-08-01T08:20:00,0,20748651,187907
OK,57,43,876,57,2014-08-01T08:25:00,0,20749100,187907
OK,57,43,876,57,2014-08-01T08:30:00,0,20749549,187907
OK,59,42,876,59,2014-08-01T08:35:00,1,20749998,187907
OK,59,42,876,59,2014-08-01T08:40:00,1,20750447,187907
OK,90,27,876,90,2014-08-01T08:45:00,1,20750896,187907
OK,90,27,876,90,2014-08-01T08:50:00,1,20751345,187907
OK,90,27,876,90,2014-08-01T08:55:00,0,20751794,187907
OK,90,27,876,90,2014-08-01T09:00:00,0,20752243,187907
OK,90,27,876,90,2014-08-01T09:05:00,0,20752692,187907
OK,90,27,876,90,2014-08-01T09:10:00,0,20753141,187907
OK,56,44,876,56,2014-08-01T09:15:00,1,20753590,187907
OK,56,44,876,56,2014-08-01T09:20:00,1,20754039,187907
OK,56,44,876,56,2014-08-01T09:25:00,0,20754488,187907
OK,56,44,876,56,2014-08-01T09:30:00,0,20754937,187907
OK,103,24,876,103,2014-08-01T09:35:00,1,20755386,187907
OK,101,24,876,101,2014-08-01T09:40:00,3,20755835,187907
OK,96,25,876,96,2014-08-01T09:45:00,3,20756284,187907
OK,61,40,876,61,2014-08-01T09:50:00,1,20756733,187907
OK,61,40,876,61,2014-08-01T09:55:00,0,20757182,187907
OK,61,40,876,61,2014-08-01T10:00:00,0,20757631,187907
OK,61,40,876,61,2014-08-01T10:05:00,0,20758080,187907
OK,61,40,876,61,2014-08-01T10:10:00,0,20758529,187907
OK,61,40,876,61,2014-08-01T10:15:00,1,20758978,187907
OK,61,40,876,61,2014-08-01T10:20:00,1,20759427,187907
OK,97,25,876,97,2014-08-01T10:25:00,4,20759876,187907
OK,97,25,876,97,2014-08-01T10:30:00,4,20760325,187907
OK,64,38,876,64,2014-08-01T10:35:00,0,20760774,187907
OK,64,38,876,64,2014-08-01T10:40:00,0,20761223,187907
OK,61,40,876,61,2014-08-01T10:45:00,1,20761672,187907
OK,61,40,876,61,2014-08-01T10:50:00,1,20762121,187907
OK,61,40,876,61,2014-08-01T10:55:00,0,20762570,187907
OK,61,40,876,61,2014-08-01T11:00:00,0,20763019,187907
OK,61,40,876,61,2014-08-01T11:05:00,0,20763468,187907
OK,61,40,876,61,2014-08-01T11:10:00,0,20763917,187907
OK,65,38,876,65,2014-08-01T11:15:00,1,20764365,187907
OK,65,38,876,65,2014-08-01T11:20:00,1,20764814,187907
OK,111,22,876,111,2014-08-01T11:25:00,1,20765263,187907
OK,117,21,876,117,2014-08-01T11:30:00,3,20765712,187907
OK,118,21,876,118,2014-08-01T11:35:00,2,20766161,187907
OK,118,21,876,118,2014-08-01T11:40:00,0,20766610,187907
OK,63,39,876,63,2014-08-01T11:45:00,2,20767059,187907
OK,63,39,876,63,2014-08-01T11:50:00,2,20767508,187907
OK,62,40,876,62,2014-08-01T11:55:00,0,20767957,187907
OK,99,25,876,99,2014-08-01T12:00:00,2,20768406,187907
OK,128,19,876,128,2014-08-01T12:05:00,3,20768855,187907
OK,130,19,876,130,2014-08-01T12:10:00,2,20769304,187907
OK,133,18,876,133,2014-08-01T12:15:00,1,20769753,187907
OK,108,23,876,108,2014-08-01T12:20:00,3,20770202,187907
OK,103,24,876,103,2014-08-01T12:25:00,4,20770651,187907
OK,53,46,876,53,2014-08-01T12:30:00,1,20771100,187907
OK,111,22,876,111,2014-08-01T12:35:00,1,20771549,187907
OK,111,22,876,111,2014-08-01T12:40:00,1,20771998,187907
OK,58,42,876,58,2014-08-01T12:45:00,1,20772447,187907
OK,99,25,876,99,2014-08-01T12:50:00,2,20772896,187907
OK,141,17,876,141,2014-08-01T12:55:00,1,20773345,187907
OK,117,21,876,117,2014-08-01T13:00:00,1,20773794,187907
OK,125,19,876,125,2014-08-01T13:05:00,2,20774243,187907
OK,97,25,876,97,2014-08-01T13:10:00,2,20774692,187907
OK,63,39,876,63,2014-08-01T13:15:00,2,20775141,187907
OK,67,37,876,67,2014-08-01T13:20:00,1,20775590,187907
OK,67,37,876,67,2014-08-01T13:25:00,0,20776039,187907
OK,67,37,876,67,2014-08-01T13:30:00,0,20776488,187907
OK,78,31,876,78,2014-08-01T13:35:00,1,20776937,187907
OK,81,30,876,81,2014-08-01T13:40:00,2,20777386,187907
OK,112,22,876,112,2014-08-01T13:45:00,2,20777835,187907
OK,77,32,876,77,2014-08-01T13:50:00,3,20778284,187907
OK,69,36,876,69,2014-08-01T13:55:00,2,20778733,187907
OK,62,40,876,62,2014-08-01T14:00:00,0,20779182,187907
OK,62,40,876,62,2014-08-01T14:05:00,0,20779631,187907
OK,62,40,876,62,2014-08-01T14:10:00,0,20780080,187907
OK,62,40,876,62,2014-08-01T14:15:00,0,20780529,187907
OK,55,45,876,55,2014-08-01T14:20:00,1,20780978,187907
OK,59,42,876,59,2014-08-01T14:25:00,2,20781427,187907
OK,63,39,876,63,2014-08-01T14:30:00,1,20781876,187907
OK,63,39,876,63,2014-08-01T14:35:00,0,20782325,187907
OK,63,39,876,63,2014-08-01T14:40:00,0,20782774,187907
OK,63,39,876,63,2014-08-01T14:45:00,0,20783223,187907
OK,63,39,876,63,2014-08-01T14:50:00,0,20783672,187907
OK,148,16,876,148,2014-08-01T14:55:00,1,20784121,187907
OK,148,16,876,148,2014-08-01T15:00:00,1,20784570,187907
OK,64,38,876,64,2014-08-01T15:05:00,1,20785019,187907
OK,64,38,876,64,2014-08-01T15:10:00,1,20785468,187907
OK,62,40,876,62,2014-08-01T15:15:00,1,20785917,187907
OK,53,46,876,53,2014-08-01T15:20:00,2,20786366,187907
OK,44,56,876,44,2014-08-01T15:25:00,1,20786815,187907
OK,44,56,876,44,2014-08-01T15:30:00,0,20787264,187907
OK,85,29,876,85,2014-08-01T15:35:00,1,20787713,187907
OK,85,29,876,85,2014-08-01T15:40:00,1,20788162,187907
OK,85,29,876,85,2014-08-01T15:45:00,0,20788611,187907
OK,105,23,876,105,2014-08-01T15:50:00,1,20789060,187907
OK,105,23,876,105,2014-08-01T15:55:00,1,20789509,187907
OK,48,51,876,48,2014-08-01T16:00:00,1,20789958,187907
OK,48,51,876,48,2014-08-01T16:05:00,1,20790407,187907
OK,48,51,876,48,2014-08-01T16:10:00,0,20790856,187907
OK,49,50,876,49,2014-08-01T16:15:00,1,20791305,187907
OK,49,50,876,49,2014-08-01T16:20:00,1,20791754,187907
OK,49,50,876,49,2014-08-01T16:25:00,1,20792203,187907
OK,49,50,876,49,2014-08-01T16:30:00,0,20792652,187907
OK,49,50,876,49,2014-08-01T16:35:00,0,20793101,187907
OK,49,50,876,49,2014-08-01T16:40:00,0,20793550,187907
OK,49,50,876,49,2014-08-01T16:45:00,0,20793999,187907
OK,49,50,876,49,2014-08-01T16:50:00,0,20794448,187907
OK,65,38,876,65,2014-08-01T16:55:00,1,20794897,187907
OK,65,38,876,65,2014-08-01T17:00:00,1,20795346,187907
OK,65,38,876,65,2014-08-01T17:05:00,0,20795795,187907
OK,65,38,876,65,2014-08-01T17:10:00,0,20796244,187907
OK,78,31,876,78,2014-08-01T17:15:00,2,20796693,187907
OK,78,31,876,78,2014-08-01T17:20:00,2,20797142,187907
OK,78,31,876,78,2014-08-01T17:25:00,0,20797591,187907
OK,78,31,876,78,2014-08-01T17:30:00,0,20798040,187907
OK,57,43,876,57,2014-08-01T17:35:00,1,20798489,187907
OK,57,43,876,57,2014-08-01T17:40:00,1,20798938,187907
OK,66,37,876,66,2014-08-01T17:45:00,1,20799387,187907
OK,66,37,876,66,2014-08-01T17:50:00,1,20799836,187907
OK,52,47,876,52,2014-08-01T17:55:00,1,20800285,187907
OK,52,47,876,52,2014-08-01T18:00:00,1,20800734,187907
OK,52,47,876,52,2014-08-01T18:05:00,0,20801183,187907
OK,52,47,876,52,2014-08-01T18:10:00,0,20801632,187907
OK,52,47,876,52,2014-08-01T18:15:00,0,20802081,187907
OK,52,47,876,52,2014-08-01T18:20:00,0,20802530,187907
OK,52,47,876,52,2014-08-01T18:25:00,0,20802979,187907
OK,52,47,876,52,2014-08-01T18:30:00,0,20803428,187907
OK,52,47,876,52,2014-08-01T18:35:00,0,20803877,187907
OK,50,49,876,50,2014-08-01T18:40:00,4,20804326,187907
OK,50,49,876,50,2014-08-01T18:45:00,4,20804775,187907
OK,50,49,876,50,2014-08-01T18:50:00,0,20805224,187907
OK,50,49,876,50,2014-08-01T18:55:00,0,20805673,187907
OK,48,51,876,48,2014-08-01T19:00:00,1,20806122,187907
OK,48,51,876,48,2014-08-01T19:05:00,1,20806571,187907
OK,48,51,876,48,2014-08-01T19:10:00,0,20807020,187907
OK,48,51,876,48,2014-08-01T19:15:00,0,20807469,187907
OK,48,51,876,48,2014-08-01T19:20:00,0,20807918,187907
OK,52,47,876,52,2014-08-01T19:25:00,1,20808367,187907
OK,52,47,876,52,2014-08-01T19:30:00,1,20808816,187907
OK,52,47,876,52,2014-08-01T19:35:00,0,20809265,187907
OK,52,47,876,52,2014-08-01T19:40:00,0,20809714,187907
OK,42,59,876,42,2014-08-01T19:45:00,1,20810163,187907
OK,42,59,876,42,2014-08-01T19:50:00,1,20810612,187907
OK,42,59,876,42,2014-08-01T19:55:00,0,20811061,187907
OK,42,59,876,42,2014-08-01T22:00:00,0,20816790,187907
OK,42,59,876,42,2014-08-01T22:05:00,0,20817239,187907
OK,42,59,876,42,2014-08-02T00:00:00,0,20823229,187907
OK,42,59,876,42,2014-08-02T00:05:00,0,20823678,187907
OK,42,59,876,42,2014-08-02T00:10:00,0,20824127,187907
OK,106,23,876,106,2014-08-02T00:15:00,0,20824576,187907
OK,106,23,876,106,2014-08-02T00:20:00,0,20825025,187907
OK,106,23,876,106,2014-08-02T00:25:00,0,20825474,187907
OK,106,23,876,106,2014-08-02T00:30:00,0,20825923,187907
OK,106,23,876,106,2014-08-02T00:35:00,0,20826372,187907
OK,106,23,876,106,2014-08-02T00:40:00,0,20826821,187907
OK,106,23,876,106,2014-08-02T00:45:00,0,20827270,187907
OK,106,23,876,106,2014-08-02T00:50:00,0,20827719,187907
OK,106,23,876,106,2014-08-02T00:55:00,0,20828168,187907
OK,106,23,876,106,2014-08-02T01:00:00,0,20828617,187907
OK,106,23,876,106,2014-08-02T01:05:00,0,20829066,187907
OK,106,23,876,106,2014-08-02T01:10:00,0,20829515,187907
OK,106,23,876,106,2014-08-02T01:15:00,0,20829964,187907
OK,106,23,876,106,2014-08-02T01:20:00,0,20830413,187907
OK,106,23,876,106,2014-08-02T01:25:00,0,20830862,187907
OK,106,23,876,106,2014-08-02T01:30:00,0,20831311,187907
OK,106,23,876,106,2014-08-02T01:35:00,0,20831760,187907
OK,106,23,876,106,2014-08-02T01:40:00,0,20832209,187907
OK,106,23,876,106,2014-08-02T01:45:00,0,20832658,187907
OK,106,23,876,106,2014-08-02T01:50:00,0,20833107,187907
OK,106,23,876,106,2014-08-02T01:55:00,0,20833556,187907
OK,106,23,876,106,2014-08-02T02:00:00,0,20834005,187907
OK,106,23,876,106,2014-08-02T02:05:00,0,20834454,187907
OK,106,23,876,106,2014-08-02T02:10:00,0,20834903,187907
OK,106,23,876,106,2014-08-02T02:15:00,0,20835352,187907
OK,106,23,876,106,2014-08-02T02:20:00,0,20835801,187907
OK,106,23,876,106,2014-08-02T02:25:00,0,20836250,187907
OK,106,23,876,106,2014-08-02T02:30:00,0,20836699,187907
OK,106,23,876,106,2014-08-02T02:35:00,0,20837148,187907
OK,106,23,876,106,2014-08-02T02:40:00,0,20837597,187907
OK,106,23,876,106,2014-08-02T02:45:00,0,20838046,187907
OK,106,23,876,106,2014-08-02T02:50:00,0,20838495,187907
OK,106,23,876,106,2014-08-02T02:55:00,0,20838944,187907
OK,106,23,876,106,2014-08-02T03:00:00,0,20839393,187907
OK,106,23,876,106,2014-08-02T03:05:00,0,20839842,187907
OK,106,23,876,106,2014-08-02T03:10:00,0,20840291,187907
OK,106,23,876,106,2014-08-02T03:15:00,0,20840740,187907
OK,106,23,876,106,2014-08-02T03:20:00,0,20841189,187907
OK,106,23,876,106,2014-08-02T03:25:00,0,20841638,187907
OK,106,23,876,106,2014-08-02T03:30:00,0,20842087,187907
OK,106,23,876,106,2014-08-02T03:35:00,0,20842536,187907
OK,106,23,876,106,2014-08-02T03:40:00,0,20842985,187907
OK,106,23,876,106,2014-08-02T03:45:00,0,20843434,187907
OK,106,23,876,106,2014-08-02T03:50:00,0,20843883,187907
OK,106,23,876,106,2014-08-02T03:55:00,0,20844332,187907
OK,58,42,876,58,2014-08-02T06:00:00,0,20851786,187907
OK,45,55,876,45,2014-08-02T06:05:00,1,20852235,187907
OK,45,55,876,45,2014-08-02T06:10:00,1,20852684,187907
OK,45,55,876,45,2014-08-02T06:15:00,0,20853133,187907
OK,45,55,876,45,2014-08-02T06:20:00,0,20853582,187907
OK,73,34,876,73,2014-08-02T06:25:00,1,20854031,187907
OK,73,34,876,73,2014-08-02T06:30:00,0,20854480,187907
OK,73,34,876,73,2014-08-02T06:35:00,0,20854929,187907
OK,73,34,876,73,2014-08-02T06:40:00,0,20855378,187907
OK,39,63,876,39,2014-08-02T06:45:00,1,20855827,187907
OK,39,63,876,39,2014-08-02T06:50:00,1,20856276,187907
OK,39,63,876,39,2014-08-02T06:55:00,0,20856725,187907
OK,39,63,876,39,2014-08-02T07:00:00,0,20857174,187907
OK,39,63,876,39,2014-08-02T07:05:00,0,20857623,187907
OK,49,50,876,49,2014-08-02T07:10:00,2,20858072,187907
OK,49,50,876,49,2014-08-02T07:15:00,2,20858521,187907
OK,54,46,876,54,2014-08-02T07:20:00,0,20858970,187907
OK,54,46,876,54,2014-08-02T07:25:00,0,20859419,187907
OK,54,46,876,54,2014-08-02T07:30:00,0,20859868,187907
OK,54,46,876,54,2014-08-02T07:35:00,0,20860317,187907
OK,54,46,876,54,2014-08-02T07:40:00,0,20860766,187907
OK,54,46,876,54,2014-08-02T07:45:00,0,20861215,187907
OK,54,46,876,54,2014-08-02T07:50:00,0,20861664,187907
OK,54,46,876,54,2014-08-02T07:55:00,0,20862113,187907
OK,54,46,876,54,2014-08-02T08:00:00,0,20862562,187907
OK,54,46,876,54,2014-08-02T08:05:00,0,20863011,187907
OK,56,44,876,56,2014-08-02T08:10:00,1,20863460,187907
OK,56,44,876,56,2014-08-02T08:15:00,1,20863909,187907
OK,56,44,876,56,2014-08-02T08:20:00,0,20864358,187907
OK,56,44,876,56,2014-08-02T08:25:00,0,20864807,187907
OK,56,44,876,56,2014-08-02T08:30:00,0,20865256,187907
OK,56,44,876,56,2014-08-02T08:35:00,0,20865705,187907
OK,56,44,876,56,2014-08-02T08:40:00,0,20866154,187907
OK,56,44,876,56,2014-08-02T08:45:00,0,20866603,187907
OK,45,55,876,45,2014-08-02T08:50:00,1,20867052,187907
OK,45,55,876,45,2014-08-02T08:55:00,0,20867501,187907
OK,45,55,876,45,2014-08-02T09:00:00,0,20867950,187907
OK,45,55,876,45,2014-08-02T09:05:00,0,20868399,187907
OK,45,55,876,45,2014-08-02T09:10:00,0,20868848,187907
OK,77,32,876,77,2014-08-02T09:15:00,1,20869297,187907
OK,77,32,876,77,2014-08-02T09:20:00,1,20869746,187907
OK,77,32,876,77,2014-08-02T09:25:00,0,20870195,187907
OK,130,19,876,130,2014-08-02T09:30:00,1,20870644,187907
OK,130,19,876,130,2014-08-02T09:35:00,1,20871093,187907
OK,57,43,876,57,2014-08-02T09:40:00,1,20871542,187907
OK,57,43,876,57,2014-08-02T09:45:00,0,20871991,187907
OK,125,19,876,125,2014-08-02T09:50:00,1,20872440,187907
OK,125,19,876,125,2014-08-02T09:55:00,1,20872889,187907
OK,125,19,876,125,2014-08-02T10:00:00,0,20873338,187907
OK,51,48,876,51,2014-08-02T10:05:00,1,20873787,187907
OK,55,45,876,55,2014-08-02T10:10:00,2,20874236,187907
OK,60,41,876,60,2014-08-02T10:15:00,3,20874685,187907
OK,66,37,876,66,2014-08-02T10:20:00,3,20875134,187907
OK,100,24,876,100,2014-08-02T10:25:00,3,20875583,187907
OK,100,24,876,100,2014-08-02T10:30:00,3,20876032,187907
OK,72,34,876,72,2014-08-02T10:35:00,2,20876481,187907
OK,53,46,876,53,2014-08-02T10:40:00,2,20876930,187907
OK,46,54,876,46,2014-08-02T10:45:00,1,20877379,187907
OK,46,54,876,46,2014-08-02T10:50:00,0,20877828,187907
OK,46,54,876,46,2014-08-02T10:55:00,0,20878277,187907
OK,46,54,876,46,2014-08-02T11:00:00,0,20878726,187907
OK,46,54,876,46,2014-08-02T11:05:00,0,20879175,187907
OK,60,41,876,60,2014-08-02T11:10:00,2,20879624,187907
OK,57,43,876,57,2014-08-02T11:15:00,3,20880073,187907
OK,55,45,876,55,2014-08-02T11:20:00,2,20880522,187907
OK,53,46,876,53,2014-08-02T11:25:00,0,20880971,187907
OK,53,46,876,53,2014-08-02T11:30:00,0,20881420,187907
OK,53,46,876,53,2014-08-02T11:35:00,0,20881869,187907
OK,61,40,876,61,2014-08-02T11:40:00,1,20882318,187907
OK,61,40,876,61,2014-08-02T11:45:00,1,20882767,187907
OK,61,40,876,61,2014-08-02T11:50:00,0,20883216,187907
OK,46,54,876,46,2014-08-02T11:55:00,1,20883665,187907
OK,46,54,876,46,2014-08-02T12:00:00,1,20884114,187907
OK,46,54,876,46,2014-08-02T12:05:00,0,20884563,187907
OK,46,54,876,46,2014-08-02T12:10:00,0,20885012,187907
OK,46,54,876,46,2014-08-02T12:15:00,0,20885461,187907
OK,56,44,876,56,2014-08-02T12:20:00,1,20885910,187907
OK,56,44,876,56,2014-08-02T12:25:00,1,20886359,187907
OK,56,44,876,56,2014-08-02T12:30:00,0,20886808,187907
OK,56,44,876,56,2014-08-02T12:35:00,0,20887257,187907
OK,56,44,876,56,2014-08-02T12:40:00,0,20887706,187907
OK,56,44,876,56,2014-08-02T12:45:00,0,20888155,187907
OK,56,44,876,56,2014-08-02T12:50:00,0,20888604,187907
OK,56,44,876,56,2014-08-02T12:55:00,0,20889053,187907
OK,101,24,876,101,2014-08-02T13:00:00,1,20889502,187907
OK,78,31,876,78,2014-08-02T13:05:00,2,20889951,187907
OK,81,30,876,81,2014-08-02T13:10:00,3,20890400,187907
OK,81,30,876,81,2014-08-02T13:15:00,2,20890849,187907
OK,81,30,876,81,2014-08-02T13:20:00,0,20891298,187907
OK,54,46,876,54,2014-08-02T13:25:00,1,20891747,187907
OK,54,46,876,54,2014-08-02T13:30:00,1,20892196,187907
OK,54,46,876,54,2014-08-02T13:35:00,0,20892645,187907
OK,54,46,876,54,2014-08-02T13:40:00,0,20893094,187907
OK,54,46,876,54,2014-08-02T13:45:00,0,20893543,187907
OK,54,46,876,54,2014-08-02T13:50:00,0,20893992,187907
OK,54,46,876,54,2014-08-02T13:55:00,0,20894441,187907
OK,54,46,876,54,2014-08-02T14:00:00,0,20894890,187907
OK,54,46,876,54,2014-08-02T14:05:00,0,20895339,187907
OK,56,44,876,56,2014-08-02T14:10:00,1,20895788,187907
OK,56,44,876,56,2014-08-02T14:15:00,0,20896237,187907
OK,56,44,876,56,2014-08-02T14:20:00,0,20896686,187907
OK,56,44,876,56,2014-08-02T14:25:00,0,20897135,187907
OK,56,44,876,56,2014-08-02T14:30:00,0,20897584,187907
OK,105,23,876,105,2014-08-02T14:35:00,1,20898033,187907
OK,105,23,876,105,2014-08-02T14:40:00,1,20898482,187907
OK,105,23,876,105,2014-08-02T14:45:00,0,20898931,187907
OK,105,23,876,105,2014-08-02T14:50:00,0,20899380,187907
OK,105,23,876,105,2014-08-02T14:55:00,0,20899829,187907
OK,45,55,876,45,2014-08-02T15:00:00,1,20900278,187907
OK,50,49,876,50,2014-08-02T15:05:00,3,20900727,187907
OK,52,47,876,52,2014-08-02T15:10:00,2,20901176,187907
OK,62,40,876,62,2014-08-02T15:15:00,1,20901625,187907
OK,62,40,876,62,2014-08-02T15:20:00,1,20902074,187907
OK,62,40,876,62,2014-08-02T15:25:00,0,20902523,187907
OK,99,25,876,99,2014-08-02T15:30:00,1,20902972,187907
OK,99,25,876,99,2014-08-02T15:35:00,1,20903421,187907
OK,99,25,876,99,2014-08-02T15:40:00,0,20903870,187907
OK,99,25,876,99,2014-08-02T15:45:00,0,20904319,187907
OK,99,25,876,99,2014-08-02T15:50:00,0,20904768,187907
OK,99,25,876,99,2014-08-02T15:55:00,0,20905217,187907
OK,99,25,876,99,2014-08-02T16:00:00,0,20905666,187907
OK,99,25,876,99,2014-08-02T16:05:00,0,20906115,187907
OK,99,25,876,99,2014-08-02T16:10:00,0,20906564,187907
OK,48,51,876,48,2014-08-02T16:15:00,1,20907013,187907
OK,48,51,876,48,2014-08-02T16:20:00,1,20907462,187907
OK,48,51,876,48,2014-08-02T16:25:00,0,20907911,187907
OK,48,51,876,48,2014-08-02T16:30:00,0,20908360,187907
OK,48,51,876,48,2014-08-02T16:35:00,0,20908809,187907
OK,48,51,876,48,2014-08-02T16:40:00,0,20909258,187907
OK,48,51,876,48,2014-08-02T16:45:00,0,20909707,187907
OK,48,51,876,48,2014-08-02T16:50:00,0,20910156,187907
OK,48,51,876,48,2014-08-02T16:55:00,0,20910605,187907
OK,48,51,876,48,2014-08-02T17:00:00,0,20911054,187907
OK,48,51,876,48,2014-08-02T17:05:00,0,20911503,187907
OK,48,51,876,48,2014-08-02T17:10:00,0,20911952,187907
OK,48,51,876,48,2014-08-02T17:15:00,0,20912401,187907
OK,58,42,876,58,2014-08-02T17:20:00,1,20912850,187907
OK,58,42,876,58,2014-08-02T17:25:00,1,20913299,187907
OK,58,42,876,58,2014-08-02T17:30:00,0,20913748,187907
OK,58,42,876,58,2014-08-02T17:35:00,0,20914197,187907
OK,58,42,876,58,2014-08-02T17:40:00,0,20914646,187907
OK,46,54,876,46,2014-08-02T17:45:00,1,20915095,187907
OK,46,54,876,46,2014-08-02T17:50:00,1,20915544,187907
OK,46,54,876,46,2014-08-02T17:55:00,0,20915993,187907
OK,46,54,876,46,2014-08-02T18:00:00,0,20916442,187907
OK,51,48,876,51,2014-08-02T18:05:00,1,20916891,187907
OK,51,48,876,51,2014-08-02T18:10:00,1,20917340,187907
OK,50,49,876,50,2014-08-02T18:15:00,1,20917789,187907
OK,50,49,876,50,2014-08-02T18:20:00,1,20918238,187907
OK,50,49,876,50,2014-08-02T18:25:00,0,20918687,187907
OK,50,49,876,50,2014-08-02T18:30:00,0,20919136,187907
OK,50,49,876,50,2014-08-02T18:35:00,0,20919585,187907
OK,50,49,876,50,2014-08-02T18:40:00,0,20920034,187907
OK,54,46,876,54,2014-08-02T18:45:00,1,20920483,187907
OK,54,46,876,54,2014-08-02T18:50:00,1,20920932,187907
OK,54,46,876,54,2014-08-02T18:55:00,0,20921381,187907
OK,54,46,876,54,2014-08-02T19:00:00,0,20921830,187907
OK,50,49,876,50,2014-08-02T19:05:00,1,20922279,187907
OK,50,49,876,50,2014-08-02T19:10:00,1,20922728,187907
OK,50,49,876,50,2014-08-02T19:15:00,0,20923177,187907
OK,50,49,876,50,2014-08-02T19:20:00,0,20923626,187907
OK,50,49,876,50,2014-08-02T19:25:00,0,20924075,187907
OK,50,49,876,50,2014-08-02T19:30:00,0,20924524,187907
OK,50,49,876,50,2014-08-02T19:35:00,1,20924973,187907
OK,50,49,876,50,2014-08-02T19:40:00,1,20925422,187907
OK,50,49,876,50,2014-08-02T19:45:00,0,20925871,187907
OK,50,49,876,50,2014-08-02T19:50:00,0,20926320,187907
OK,47,52,876,47,2014-08-02T19:55:00,1,20926769,187907
OK,47,52,876,47,2014-08-02T20:00:00,1,20927218,187907
OK,47,52,876,47,2014-08-02T20:05:00,0,20927667,187907
OK,47,52,876,47,2014-08-02T20:10:00,0,20928116,187907
OK,47,52,876,47,2014-08-02T20:15:00,0,20928565,187907
OK,47,52,876,47,2014-08-02T20:20:00,0,20929014,187907
OK,47,52,876,47,2014-08-02T20:25:00,0,20929463,187907
OK,47,52,876,47,2014-08-02T20:30:00,0,20929912,187907
OK,47,52,876,47,2014-08-02T20:35:00,0,20930361,187907
OK,47,52,876,47,2014-08-02T20:40:00,0,20930810,187907
OK,47,52,876,47,2014-08-02T20:45:00,0,20931259,187907
OK,47,52,876,47,2014-08-02T20:50:00,0,20931708,187907
OK,55,45,876,55,2014-08-02T20:55:00,1,20932157,187907
OK,55,45,876,55,2014-08-02T21:00:00,1,20932606,187907
OK,55,45,876,55,2014-08-02T21:05:00,0,20933055,187907
OK,55,45,876,55,2014-08-02T21:10:00,0,20933504,187907
OK,55,45,876,55,2014-08-02T21:15:00,0,20933953,187907
OK,55,45,876,55,2014-08-02T21:20:00,0,20934402,187907
OK,55,45,876,55,2014-08-02T21:25:00,0,20934851,187907
OK,55,45,876,55,2014-08-02T21:30:00,0,20935300,187907
OK,55,45,876,55,2014-08-02T21:35:00,0,20935749,187907
OK,55,45,876,55,2014-08-02T21:40:00,0,20936198,187907
OK,55,45,876,55,2014-08-02T21:45:00,0,20936647,187907
OK,55,45,876,55,2014-08-02T21:50:00,0,20937096,187907
OK,55,45,876,55,2014-08-02T21:55:00,0,20937545,187907
OK,55,45,876,55,2014-08-02T22:00:00,0,20937994,187907
OK,55,45,876,55,2014-08-02T22:05:00,0,20938443,187907
OK,55,45,876,55,2014-08-02T22:10:00,0,20938892,187907
OK,55,45,876,55,2014-08-02T22:15:00,0,20939341,187907
OK,55,45,876,55,2014-08-02T22:20:00,0,20939790,187907
OK,55,45,876,55,2014-08-02T22:25:00,0,20940239,187907
OK,55,45,876,55,2014-08-02T22:30:00,0,20940688,187907
OK,55,45,876,55,2014-08-02T22:35:00,0,20941137,187907
OK,55,45,876,55,2014-08-02T22:40:00,0,20941586,187907
OK,72,34,876,72,2014-08-02T22:45:00,1,20942035,187907
OK,67,37,876,67,2014-08-02T22:50:00,1,20942484,187907
OK,67,37,876,67,2014-08-02T22:55:00,0,20942933,187907
OK,67,37,876,67,2014-08-02T23:00:00,0,20943382,187907
OK,67,37,876,67,2014-08-02T23:10:00,0,20943831,187907
OK,67,37,876,67,2014-08-02T23:15:00,0,20944280,187907
OK,67,37,876,67,2014-08-02T23:20:00,0,20944729,187907
OK,67,37,876,67,2014-08-02T23:25:00,0,20945178,187907
OK,67,37,876,67,2014-08-02T23:30:00,0,20945627,187907
OK,67,37,876,67,2014-08-02T23:35:00,0,20946076,187907
OK,67,37,876,67,2014-08-02T23:40:00,0,20946525,187907
OK,67,37,876,67,2014-08-02T23:45:00,0,20946974,187907
OK,67,37,876,67,2014-08-02T23:50:00,0,20947423,187907
OK,67,37,876,67,2014-08-02T23:55:00,0,20947872,187907
OK,67,37,876,67,2014-08-03T00:00:00,0,20948321,187907
OK,67,37,876,67,2014-08-03T00:05:00,0,20948770,187907
OK,67,37,876,67,2014-08-03T00:10:00,0,20949218,187907
OK,67,37,876,67,2014-08-03T00:15:00,0,20949667,187907
OK,67,37,876,67,2014-08-03T00:20:00,0,20950116,187907
OK,67,37,876,67,2014-08-03T00:25:00,0,20950565,187907
OK,63,39,876,63,2014-08-03T00:30:00,1,20951014,187907
OK,63,39,876,63,2014-08-03T00:35:00,0,20951463,187907
OK,63,39,876,63,2014-08-03T00:40:00,0,20951912,187907
OK,63,39,876,63,2014-08-03T00:45:00,0,20952361,187907
OK,63,39,876,63,2014-08-03T00:50:00,0,20952810,187907
OK,63,39,876,63,2014-08-03T00:55:00,0,20953259,187907
OK,63,39,876,63,2014-08-03T01:00:00,0,20953708,187907
OK,63,39,876,63,2014-08-03T01:05:00,0,20954157,187907
OK,63,39,876,63,2014-08-03T01:10:00,0,20954606,187907
OK,63,39,876,63,2014-08-03T01:15:00,0,20955055,187907
OK,63,39,876,63,2014-08-03T01:20:00,0,20955504,187907
OK,63,39,876,63,2014-08-03T01:25:00,0,20955953,187907
OK,63,39,876,63,2014-08-03T01:30:00,0,20956402,187907
OK,63,39,876,63,2014-08-03T01:35:00,0,20956851,187907
OK,63,39,876,63,2014-08-03T01:40:00,0,20957300,187907
OK,63,39,876,63,2014-08-03T01:45:00,0,20957749,187907